星链-3266 (STARLINK-3266 )

导读 | 星芒AI

STARLINK-3266 是 SpaceX Starlink 项目中的一颗低轨通信卫星,属于第32组发射的卫星之一。该卫星旨在为全球用户提供高速互联网服务,尤其关注网络覆盖不足的地区。它运行在约550公里高度的近地轨道,具备先进的相控阵天线和激光通信技术,以提升连接速度和稳定性。作为 Starlink 卫星群的一部分,STARLINK-3266 有助于构建一个全球性的宽带网络系统,支持民用和商业用途,同时也在一定程度上具备应急通信能力。

基本信息
目录编号:
50195
目录名称:
STARLINK-3266
国际标识:
2021-125AR
轨道中心:
EARTH
卫星名称:
星链-3266
卫星全名:
星链-3266 (STARLINK-3266 )
卫星状态:
在轨 (已飞行1417 天)
发射日期:
2021-12-18 UTC
国别 :
美国 (US)
星等 :
--
轨道信息
数据来源 国际轨道数据
星历时间: 2025-11-04T02:50:21+0800
16小时前
查看轨道信息
半长轴: 6917.899km
偏心率: 0.0001242
轨道倾角: 53.216°
近地点辐角 75.576°
升交点赤经 84.326°
平近点角 284.536°
近地点: 538.904km
远地点: 540.624km
周期: 95.438分钟
每日圈数: 15.088342
详细信息
固有亮度:
5
最大亮度:
2.5
卫星平台:
Starlink v1.5
覆盖范围:
全球
运营商:
太空探索技术公司
运营商所在国:
美国
制造商(研发单位):
太空探索技术公司
制造商所在国:
美国
使用方式:
暂无
卫星简介
星链(Starlink)计划是由太空探索技术公司(SpaceX)提出的一个巨型低轨卫星互联网星座项目,计划在2019年至2024年间在太空搭建由约1.2万颗卫星组成的“星链”网络,其中1584颗将部署在地球上空550千米处的近地轨道,并从2020年开始工作。该卫星仍在工作。
2D轨道图
3D轨道图
轨道高度分析图
轨道倾角分析图
轨道综合分析图
查看轨道综合分析图